KB1JL-13 Weather Reports


time (UTC)temp
C
wind
direction
speed
KPH
gust
KPH
rain 1hr
cm
rain 24hr
cm
rain mn
cm
humidity
%
barometer
mb
20260506201649 13 112 3.2 3.2 0.18 0.25 0.25 99 1019.2
20260506201145 13 191 6.4 8.0 0.18 0.25 0.25 99 1018.9
20260506200642 13 178 4.8 4.8 0.00 0.23 0.23 99 1018.9
20260506200139 13 193 3.2 4.8 0.00 0.23 0.23 99 1019.2
20260506195635 13 223 4.8 8.0 0.00 0.23 0.23 99 1018.9
20260506195132 13 186 4.8 4.8 0.00 0.23 0.23 99 1018.9
20260506194629 13 198 3.2 8.0 0.00 0.23 0.23 99 1019.2
20260506194125 13 187 6.4 9.7 0.00 0.23 0.23 99 1019.2
20260506193623 13 180 8.0 9.7 0.00 0.23 0.23 99 1019.2
20260506193120 13 188 9.7 11.3 0.00 0.23 0.23 99 1019.2
20260506192617 13 188 9.7 12.9 0.00 0.23 0.23 99 1019.2
20260506192113 13 195 6.4 8.0 0.00 0.23 0.23 99 1019.2
20260506191610 13 194 12.9 14.5 0.00 0.23 0.23 99 1019.2
20260506191105 13 177 8.0 8.0 0.00 0.23 0.23 99 1019.5
20260506190603 14 192 8.0 9.7 0.00 0.23 0.23 99 1019.5
20260506190100 13 186 6.4 8.0 0.00 0.23 0.23 99 1019.5
20260506185557 13 195 6.4 8.0 0.00 0.23 0.23 99 1019.5
20260506185053 13 191 6.4 8.0 0.00 0.23 0.23 99 1019.9
20260506184551 13 152 6.4 8.0 0.00 0.23 0.23 99 1019.5
20260506184048 13 201 3.2 4.8 0.00 0.23 0.23 99 1019.5
20260506183544 13 194 9.7 14.5 0.00 0.23 0.23 99 1019.9
20260506183041 13 164 4.8 4.8 0.18 0.23 0.23 99 1019.9
20260506182538 13 146 8.0 11.3 0.30 0.23 0.23 99 1020.5
20260506182035 13 193 8.0 9.7 0.30 0.20 0.20 99 1020.2
20260506181533 13 190 4.8 4.8 0.18 0.18 0.18 99 1020.2
20260506181030 13 179 6.4 8.0 0.00 0.15 0.15 99 1019.9
20260506180526 13 181 4.8 4.8 0.13 0.15 0.15 99 1019.9
20260506180023 13 154 4.8 12.9 0.13 0.15 0.15 99 1019.9
20260506175520 13 192 4.8 4.8 0.00 0.13 0.13 99 1019.5
20260506175016 13 193 6.4 11.3 0.00 0.13 0.13 99 1019.9
20260506174515 13 209 9.7 11.3 0.18 0.13 0.13 99 1019.9
20260506174010 13 144 4.8 4.8 0.18 0.13 0.13 99 1020.2
20260506173508 14 159 8.0 11.3 0.13 0.10 0.10 98 1020.5
20260506173005 14 187 3.2 3.2 0.13 0.10 0.10 98 1020.5
20260506172502 14 187 4.8 8.0 0.18 0.08 0.08 98 1020.5
20260506171958 14 150 0.0 1.6 0.18 0.08 0.08 98 1020.9
20260506171456 14 160 0.0 1.6 0.13 0.05 0.05 97 1020.9
20260506170953 14 188 9.7 11.3 0.13 0.05 0.05 96 1020.9
20260506170449 14 205 6.4 8.0 0.00 0.03 0.03 96 1021.2
20260506165948 14 180 4.8 4.8 0.18 0.03 0.03 95 1020.9
20260506165446 15 186 4.8 4.8 0.18 0.03 0.03 94 1020.9
20260506164942 15 186 4.8 9.7 0.00 0.00 0.00 93 1021.2
20260506164439 15 261 8.0 14.5 0.00 0.00 0.00 92 1021.6
20260506163937 15 149 3.2 4.8 0.00 0.00 0.00 91 1021.2
20260506163432 15 149 8.0 11.3 0.00 0.00 0.00 89 1020.9
20260506162927 15 163 8.0 12.9 0.00 0.00 0.00 88 1021.2
20260506162425 16 194 12.9 17.7 0.00 0.00 0.00 87 1021.2
20260506161921 16 186 9.7 12.9 0.00 0.00 0.00 87 1021.6
20260506161420 16 175 16.1 20.9 0.00 0.00 0.00 86 1021.2
20260506160911 16 202 8.0 9.7 0.00 0.00 0.00 85 1021.2
20260506160409 16 159 3.2 3.2 0.00 0.00 0.00 85 1021.6
20260506155906 16 212 9.7 12.9 0.00 0.00 0.00 85 1021.6
20260506155403 16 170 11.3 12.9 0.00 0.00 0.00 85 1021.6
20260506153525 16 187 8.0 9.7 0.00 0.00 0.00 86 1021.9
20260506153023 16 180 9.7 11.3 0.00 0.00 0.00 85 1021.6
20260506152520 16 210 8.0 11.3 0.00 0.00 0.00 85 1021.6
20260506152018 16 190 4.8 8.0 0.00 0.00 0.00 86 1021.6
20260506151515 16 188 9.7 12.9 0.00 0.00 0.00 86 1021.6
20260506151012 16 84 4.8 8.0 0.00 0.00 0.00 86 1021.6
20260506150508 16 196 8.0 12.9 0.00 0.00 0.00 86 1021.6
20260506150006 16 217 9.7 12.9 0.00 0.00 0.00 85 1021.6
20260506145502 16 199 11.3 14.5 0.00 0.00 0.00 85 1021.2
20260506145000 16 169 11.3 14.5 0.00 0.00 0.00 85 1021.6
20260506144456 16 234 9.7 12.9 0.00 0.00 0.00 85 1021.6
20260506143954 16 216 14.5 17.7 0.00 0.00 0.00 84 1021.6
20260506143451 17 163 9.7 14.5 0.00 0.00 0.00 83 1021.6
20260506142950 17 172 0.0 0.0 0.00 0.00 0.00 83 1021.6
20260506142447 17 174 6.4 9.7 0.00 0.00 0.00 82 1021.6
20260506141944 17 175 12.9 16.1 0.00 0.00 0.00 82 1021.9
20260506141442 17 97 3.2 8.0 0.00 0.00 0.00 81 1021.6
20260506140941 18 170 4.8 9.7 0.00 0.00 0.00 82 1021.6
20260506140437 17 183 16.1 17.7 0.00 0.00 0.00 82 1021.6
20260506135934 17 212 4.8 16.1 0.00 0.00 0.00 83 1021.9
20260506135432 17 169 1.6 3.2 0.00 0.00 0.00 84 1021.9
20260506134927 17 154 0.0 0.0 0.00 0.00 0.00 84 1021.6
20260506134424 16 191 0.0 0.0 0.00 0.00 0.00 84 1021.6
20260506133921 16 229 4.8 12.9 0.00 0.00 0.00 85 1021.6
20260506133418 16 199 11.3 12.9 0.00 0.00 0.00 85 1021.6
20260506132914 16 137 0.0 0.0 0.00 0.00 0.00 85 1021.6
20260506132411 16 181 0.0 0.0 0.00 0.00 0.00 87 1021.6
20260506131909 16 172 1.6 8.0 0.00 0.00 0.00 87 1021.6
20260506131405 16 203 6.4 11.3 0.00 0.00 0.00 87 1021.2
20260506130902 16 189 1.6 4.8 0.00 0.00 0.00 86 1021.6
20260506130358 16 174 0.0 0.0 0.00 0.00 0.00 87 1021.6
20260506125857 16 214 0.0 0.0 0.00 0.00 0.00 87 1021.6
20260506125355 16 190 0.0 0.0 0.00 0.00 0.00 87 1021.6
20260506124853 16 175 0.0 0.0 0.00 0.00 0.00 87 1021.6
20260506124349 16 195 0.0 0.0 0.00 0.00 0.00 87 1021.6
20260506123848 16 183 0.0 1.6 0.00 0.00 0.00 86 1021.9
20260506123346 16 150 0.0 0.0 0.00 0.00 0.00 88 1022.2
20260506122843 16 200 0.0 0.0 0.00 0.00 0.00 88 1022.6
20260506122339 15 203 0.0 0.0 0.00 0.00 0.00 89 1022.2
20260506121838 15 196 12.9 16.1 0.00 0.00 0.00 89 1022.2
20260506121334 15 198 0.0 0.0 0.00 0.00 0.00 90 1022.6
20260506120831 15 199 0.0 0.0 0.00 0.00 0.00 90 1022.2
20260506120329 15 255 0.0 0.0 0.00 0.00 0.00 91 1022.2
20260506115826 15 185 0.0 0.0 0.00 0.00 0.00 92 1022.2
20260506115324 14 151 0.0 0.0 0.00 0.00 0.00 93 1021.9
20260506114822 14 185 1.6 3.2 0.00 0.00 0.00 93 1022.2
20260506114320 14 181 0.0 0.0 0.00 0.00 0.00 93 1022.2
20260506113818 14 199 0.0 0.0 0.00 0.00 0.00 93 1022.2
20260506113315 14 170 4.8 8.0 0.00 0.00 0.00 94 1021.9
20260506112812 13 212 0.0 0.0 0.00 0.00 0.00 95 1022.2
20260506112309 13 170 6.4 8.0 0.00 0.00 0.00 95 1022.2
20260506111806 13 180 3.2 4.8 0.00 0.00 0.00 96 1022.2
20260506111304 13 166 11.3 11.3 0.00 0.00 0.00 96 1022.6
20260506110802 13 208 3.2 4.8 0.00 0.00 0.00 96 1022.2
20260506110258 13 171 1.6 3.2 0.00 0.00 0.00 96 1022.2
20260506105755 13 187 4.8 4.8 0.00 0.00 0.00 96 1022.2
20260506105252 13 170 1.6 1.6 0.00 0.00 0.00 97 1021.9
20260506104750 12 192 8.0 9.7 0.00 0.00 0.00 97 1022.2
20260506104247 12 195 6.4 8.0 0.00 0.00 0.00 97 1021.9
20260506103744 12 205 3.2 3.2 0.00 0.00 0.00 97 1022.2
20260506103242 12 193 4.8 8.0 0.00 0.00 0.00 97 1022.2
20260506102739 12 195 6.4 8.0 0.00 0.00 0.00 97 1021.9
20260506102237 12 192 4.8 4.8 0.00 0.00 0.00 97 1021.9
20260506101734 12 192 1.6 4.8 0.00 0.00 0.00 97 1021.9
20260506101230 12 179 1.6 1.6 0.00 0.00 0.00 97 1021.9
20260506100728 12 188 4.8 4.8 0.00 0.00 0.00 97 1021.9
20260506100226 12 191 3.2 3.2 0.00 0.00 0.00 97 1022.2
20260506095724 12 208 9.7 11.3 0.00 0.00 0.00 97 1022.2
20260506095221 12 204 3.2 3.2 0.00 0.00 0.00 97 1021.9
20260506094718 12 195 6.4 11.3 0.00 0.00 0.00 97 1022.2
20260506094216 12 169 1.6 3.2 0.00 0.00 0.00 97 1021.9
20260506093715 12 206 1.6 3.2 0.00 0.00 0.00 97 1021.9
20260506093211 12 256 1.6 3.2 0.00 0.00 0.00 97 1021.9
20260506092709 12 208 4.8 4.8 0.00 0.00 0.00 96 1022.2
20260506092206 12 223 4.8 4.8 0.00 0.00 0.00 96 1021.9
20260506091704 12 209 6.4 8.0 0.00 0.00 0.00 97 1021.9
20260506091201 12 149 1.6 1.6 0.00 0.00 0.00 96 1021.9
20260506090659 12 53 1.6 1.6 0.00 0.00 0.00 96 1022.2
20260506090155 12 193 0.0 1.6 0.00 0.00 0.00 96 1022.2
20260506085652 12 185 1.6 3.2 0.00 0.00 0.00 96 1022.2
20260506085148 12 164 4.8 4.8 0.00 0.00 0.00 96 1022.6
20260506084645 12 165 4.8 4.8 0.00 0.00 0.00 96 1022.2
20260506084142 12 207 3.2 4.8 0.00 0.00 0.00 95 1022.2
20260506083639 12 181 1.6 3.2 0.00 0.00 0.00 95 1022.2
20260506083136 12 169 4.8 8.0 0.00 0.00 0.00 95 1022.2
20260506082633 12 153 1.6 1.6 0.00 0.00 0.00 95 1022.2
20260506082128 12 181 1.6 1.6 0.00 0.00 0.00 95 1022.2
20260506081627 12 185 3.2 4.8 0.00 0.00 0.00 95 1022.2
20260506081124 12 207 3.2 4.8 0.00 0.00 0.00 95 1021.9
20260506080622 12 177 6.4 9.7 0.00 0.00 0.00 95 1022.2
20260506080118 13 142 3.2 3.2 0.00 0.00 0.00 95 1022.6
20260506073102 13 159 6.4 8.0 0.00 0.00 0.00 93 1022.2
20260506072558 13 161 4.8 4.8 0.00 0.00 0.00 93 1022.2
20260506072057 13 130 1.6 3.2 0.00 0.00 0.00 93 1022.6
20260506071554 13 161 4.8 4.8 0.00 0.00 0.00 93 1022.6
20260506071051 13 180 3.2 3.2 0.00 0.00 0.00 92 1022.6
20260506070548 13 163 4.8 4.8 0.00 0.00 0.00 92 1022.6
20260506062023 13 140 1.6 3.2 0.00 0.00 0.00 91 1022.2
20260506061518 13 138 1.6 4.8 0.00 0.00 0.00 91 1022.2
20260506061016 13 193 4.8 8.0 0.00 0.00 0.00 90 1022.2
20260506060515 13 194 12.9 16.1 0.00 0.00 0.00 90 1022.2
20260506050943 14 176 4.8 4.8 0.00 0.00 0.00 88 1022.6
20260506050441 15 185 4.8 4.8 0.00 0.00 0.00 88 1023.0
20260506044931 15 154 1.6 1.6 0.00 0.00 0.00 86 1022.6
20260506044430 15 229 0.0 0.0 0.00 0.00 0.00 86 1022.2
20260506043926 15 189 0.0 0.0 0.00 0.00 0.00 86 1022.6
20260506043423 15 188 0.0 0.0 0.00 0.00 0.00 85 1023.0
20260506042921 15 191 1.6 4.8 0.00 0.00 0.00 85 1022.6
20260506042420 15 165 0.0 0.0 0.00 0.00 0.00 84 1022.2
20260506041918 15 182 0.0 0.0 0.00 0.00 0.00 84 1023.0
20260506041415 15 193 0.0 1.6 0.00 0.00 0.00 84 1023.0
20260506040912 16 192 0.0 0.0 0.00 0.00 0.00 83 1022.6
20260506040410 16 178 0.0 0.0 0.00 0.00 0.00 82 1022.6
20260506035906 16 178 3.2 9.7 0.00 0.00 0.00 82 1022.6
20260506035404 16 183 3.2 9.7 0.00 0.00 0.00 82 1022.6
20260506034900 16 174 0.0 1.6 0.00 0.00 0.00 81 1022.6
20260506034358 16 172 4.8 8.0 0.00 0.00 0.00 81 1022.6
20260506033854 16 202 0.0 3.2 0.00 0.00 0.00 81 1022.6
20260506033351 16 167 1.6 8.0 0.00 0.00 0.00 80 1023.0
20260506032848 16 211 4.8 8.0 0.00 0.00 0.00 80 1023.0
20260506032345 16 188 1.6 8.0 0.00 0.00 0.00 79 1022.6
20260506031842 16 212 3.2 14.5 0.00 0.00 0.00 79 1023.0
20260506031339 16 218 1.6 9.7 0.00 0.00 0.00 78 1022.6
20260506030837 16 183 0.0 0.0 0.00 0.00 0.00 77 1023.0
20260506030335 16 199 6.4 14.5 0.00 0.00 0.00 77 1022.6
20260506025831 16 166 0.0 0.0 0.00 0.00 0.00 76 1022.6
20260506025327 16 190 1.6 14.5 0.00 0.00 0.00 76 1022.6
20260506024825 16 190 8.0 11.3 0.00 0.00 0.00 75 1022.6
20260506024322 16 191 0.0 0.0 0.00 0.00 0.00 76 1022.6
20260506023818 17 214 19.3 29.0 0.00 0.00 0.00 75 1022.6
20260506023315 17 185 4.8 12.9 0.00 0.00 0.00 75 1022.6
20260506022811 16 182 1.6 3.2 0.00 0.00 0.00 75 1022.6
20260506022309 16 156 0.0 0.0 0.00 0.00 0.00 75 1022.6
20260506021807 16 169 4.8 9.7 0.00 0.00 0.00 75 1022.6
20260506021304 16 192 0.0 0.0 0.00 0.00 0.00 75 1022.6
20260506020800 16 155 0.0 0.0 0.00 0.00 0.00 75 1022.6
20260506020258 16 137 0.0 1.6 0.00 0.00 0.00 75 1022.6
20260506015756 16 180 4.8 8.0 0.00 0.00 0.00 75 1022.2
20260506015253 16 165 0.0 0.0 0.00 0.00 0.00 75 1022.6
20260506014750 16 193 0.0 0.0 0.00 0.00 0.00 75 1022.6
20260506014246 16 179 4.8 4.8 0.00 0.00 0.00 75 1022.6
20260506013743 16 161 3.2 8.0 0.00 0.00 0.00 75 1022.6
20260506013241 16 322 0.0 1.6 0.00 0.00 0.00 74 1022.2
20260506012737 16 205 0.0 1.6 0.00 0.00 0.00 74 1022.2
20260506012234 16 191 0.0 0.0 0.00 0.00 0.00 75 1022.2
20260506011731 16 199 9.7 12.9 0.00 0.00 0.00 75 1022.2
20260506011227 16 161 0.0 0.0 0.00 0.00 0.00 74 1021.9
20260506010726 16 207 0.0 0.0 0.00 0.00 0.00 74 1021.9
20260506010223 17 198 0.0 0.0 0.00 0.00 0.00 74 1021.9
20260506005720 17 203 1.6 12.9 0.00 0.00 0.00 73 1021.9
20260506005217 17 190 0.0 3.2 0.00 0.00 0.00 73 1021.6
20260506004713 17 186 0.0 1.6 0.00 0.00 0.00 72 1021.9
20260506004211 17 218 0.0 0.0 0.00 0.00 0.00 71 1021.6
20260506003706 17 229 14.5 17.7 0.00 0.00 0.00 71 1021.2
20260506003203 17 195 0.0 3.2 0.00 0.00 0.00 71 1021.6
20260506002659 17 188 0.0 0.0 0.00 0.00 0.00 71 1021.6
20260506002155 17 174 0.0 0.0 0.00 0.00 0.00 71 1021.2
20260506001651 17 219 4.8 11.3 0.00 0.00 0.00 70 1021.2
20260506001148 17 200 0.0 0.0 0.00 0.00 0.00 71 1020.9
20260506000645 17 207 8.0 14.5 0.00 0.00 0.00 69 1021.2
20260506000143 17 195 3.2 9.7 0.00 0.00 0.00 69 1021.2
20260505235641 17 197 19.3 27.4 0.00 0.00 0.00 69 1020.9
20260505235138 18 184 8.0 16.1 0.00 0.00 0.00 69 1020.9
20260505234635 17 195 0.0 0.0 0.00 0.00 0.00 70 1020.9
20260505234131 17 193 1.6 9.7 0.00 0.00 0.00 71 1020.9
20260505233629 17 195 0.0 0.0 0.00 0.00 0.00 71 1020.9
20260505233126 18 198 8.0 17.7 0.00 0.00 0.00 71 1020.5
20260505232623 18 187 12.9 16.1 0.00 0.00 0.00 69 1020.9
20260505232121 18 156 0.0 0.0 0.00 0.00 0.00 70 1020.9
20260505231618 18 204 0.0 0.0 0.00 0.00 0.00 69 1020.5
20260505231116 18 179 4.8 12.9 0.00 0.00 0.00 69 1020.2
20260505230614 18 205 20.9 25.7 0.00 0.00 0.00 68 1020.5
20260505230110 18 201 0.0 0.0 0.00 0.00 0.00 70 1020.5
20260505225607 18 206 3.2 9.7 0.00 0.00 0.00 69 1020.5
20260505225103 18 193 0.0 0.0 0.00 0.00 0.00 70 1020.2
20260505224600 18 162 0.0 0.0 0.00 0.00 0.00 70 1020.2
20260505224057 18 200 0.0 0.0 0.00 0.00 0.00 70 1020.2
20260505223554 18 166 0.0 0.0 0.00 0.00 0.00 69 1020.5
20260505223050 18 200 3.2 8.0 0.00 0.00 0.00 69 1020.5
20260505222547 19 158 0.0 0.0 0.00 0.00 0.00 69 1020.5
20260505222043 19 192 4.8 12.9 0.00 0.00 0.00 68 1020.5
20260505221540 19 195 8.0 12.9 0.00 0.00 0.00 68 1020.2
20260505221036 19 186 0.0 0.0 0.00 0.00 0.00 68 1020.5
20260505220534 19 207 12.9 12.9 0.00 0.00 0.00 68 1020.5
20260505220032 19 195 0.0 1.6 0.00 0.00 0.00 68 1020.5
20260505215530 20 190 3.2 9.7 0.00 0.00 0.00 68 1020.5
20260505215027 20 170 1.6 3.2 0.00 0.00 0.00 67 1020.2
20260505214525 20 154 1.6 8.0 0.00 0.00 0.00 66 1020.5
20260505214022 20 222 4.8 8.0 0.00 0.00 0.00 66 1020.2
20260505213519 20 214 3.2 9.7 0.00 0.00 0.00 67 1020.2
20260505213015 20 153 1.6 3.2 0.00 0.00 0.00 67 1019.9
20260505212512 20 141 19.3 22.5 0.00 0.00 0.00 65 1020.2
20260505212009 20 184 11.3 20.9 0.00 0.00 0.00 65 1019.9
20260505211507 20 188 8.0 12.9 0.00 0.00 0.00 67 1019.9
20260505211003 20 185 3.2 11.3 0.00 0.00 0.00 67 1020.2
20260505210500 20 188 8.0 16.1 0.00 0.00 0.00 66 1020.2
20260505205956 21 163 0.0 0.0 0.00 0.00 0.00 65 1020.2
20260505205455 20 193 0.0 0.0 0.00 0.00 0.00 66 1020.5
20260505204951 21 178 11.3 14.5 0.00 0.00 0.00 65 1020.2
20260505204449 20 197 6.4 11.3 0.00 0.00 0.00 66 1019.9
20260505203946 21 171 6.4 16.1 0.00 0.00 0.00 64 1020.2
20260505203443 21 221 4.8 8.0 0.00 0.00 0.00 65 1020.2
20260505202939 21 187 6.4 11.3 0.00 0.00 0.00 66 1020.2
20260505202436 21 183 6.4 11.3 0.00 0.00 0.00 65 1020.5
20260505201932 21 208 16.1 17.7 0.00 0.00 0.00 64 1019.9